Total_Precipitation_Accumulation
0.61 0.96 1.10 1.10 1.08 1.02 1.01 1.03 1.02 1.11 1.22 1.26 1.38 1.52 1.65 1.66 1.59 1.58 1.52 1.42 1.22 1.04
0.78 0.91 1.01 1.06 1.33 1.56 1.65 1.54 1.44 1.42 1.30 1.20 1.11 1.16 1.36 1.48 1.43 1.36 1.20 0.95 0.80 0.69
0.98 1.12 0.96 0.94 0.97 0.92 1.03 1.24 1.21 1.12 1.13 1.12 1.12 1.14 1.11 1.11 1.11 1.17 1.13 1.01 0.85 0.66
0.49 0.67 0.65 0.55 0.66 0.81 0.78 0.72 0.87 0.88 0.86 0.92 0.83 0.79 0.86 0.84 0.83 0.78 0.76 0.76 0.74 0.70
0.15 0.23 0.33 0.33 0.35 0.54 0.75 0.85 0.90 0.77 0.69 0.64 0.69 0.77 0.74 0.68 0.60 0.57 0.62 0.63 0.66 0.69
0.05 0.05 0.08 0.11 0.12 0.16 0.27 0.45 0.57 0.65 0.69 0.73 0.77 0.76 0.78 0.79 0.73 0.64 0.60 0.59 0.62 0.67
0.00 0.01 0.01 0.01 0.02 0.05 0.12 0.20 0.35 0.58 0.73 0.70 0.67 0.75 0.77 0.77 0.75 0.66 0.64 0.62 0.62 0.64
0.01 0.01 0.01 0.02 0.01 0.01 0.03 0.07 0.12 0.23 0.36 0.46 0.50 0.64 0.71 0.71 0.70 0.67 0.66 0.68 0.67 0.64
0.02 0.01 0.01 0.00 0.00 0.00 0.00 0.00 0.01 0.03 0.09 0.21 0.35 0.58 0.65 0.59 0.55 0.55 0.56 0.53 0.54 0.61
0.00 0.00 0.00 0.00 0.00 0.00 0.01 0.01 0.02 0.04 0.08 0.10 0.15 0.33 0.48 0.47 0.42 0.48 0.50 0.49 0.47 0.49
0.00 0.00 0.00 0.00 0.00 0.01 0.02 0.02 0.04 0.08 0.08 0.07 0.12 0.26 0.32 0.35 0.32 0.32 0.33 0.33 0.36 0.37
0.00 0.00 0.00 0.00 0.01 0.01 0.04 0.05 0.06 0.07 0.07 0.05 0.05 0.16 0.24 0.31 0.27 0.32 0.38 0.33 0.32 0.36
0.00 0.00 0.01 0.02 0.03 0.03 0.05 0.05 0.04 0.02 0.01 0.04 0.04 0.11 0.16 0.27 0.25 0.23 0.24 0.25 0.31 0.40
0.02 0.02 0.02 0.01 0.01 0.01 0.01 0.01 0.01 0.01 0.01 0.02 0.05 0.09 0.10 0.13 0.15 0.23 0.33 0.33 0.32 0.36